EW4353 Weather Reports


Display with metric or nautical units.
time (UTC)temp
F
wind
direction
speed
MPH
gust
MPH
rain 1hr
in
rain 24hr
in
rain mn
in
humidity
%
barometer
mb
20260507113056 20 229 0.0 0.0 0.00 0.00 0.00 81 1010.8
20260507111601 21 229 0.0 0.0 0.00 0.00 0.00 81 1010.7
20260507110055 21 229 0.0 0.0 0.00 0.00 0.00 81 1010.7
20260507104554 21 229 0.0 0.0 0.00 0.00 0.00 81 1010.6
20260507103053 22 229 0.0 0.0 0.00 0.00 0.00 81 1010.4
20260507101601 23 229 0.0 0.0 0.00 0.00 0.00 80 1010.6
20260507100045 24 229 0.0 0.0 0.00 0.00 0.00 80 1010.5
20260507094544 25 229 0.0 0.0 0.00 0.00 0.00 79 1010.6
20260507093044 25 229 0.0 0.0 0.00 0.00 0.00 79 1010.6
20260507091540 26 229 0.0 0.0 0.00 0.00 0.00 79 1010.6
20260507090038 26 229 0.0 0.0 0.00 0.00 0.00 78 1010.6
20260507084539 27 229 0.0 0.0 0.00 0.00 0.00 77 1010.6
20260507083033 27 229 0.0 0.0 0.00 0.00 0.00 77 1010.5
20260507081536 28 229 0.0 0.0 0.00 0.00 0.00 77 1010.6
20260507080029 28 229 0.0 0.0 0.00 0.00 0.00 76 1010.7
20260507074526 29 229 0.0 0.0 0.00 0.00 0.00 74 1010.8
20260507073022 30 229 0.0 0.0 0.00 0.00 0.00 73 1010.9
20260507071521 30 229 0.0 0.0 0.00 0.00 0.00 72 1011.0
20260507070017 31 229 0.0 0.0 0.00 0.00 0.00 71 1011.1
20260507064516 32 229 0.0 0.0 0.00 0.00 0.00 71 1011.1
20260507063012 32 229 0.0 0.0 0.00 0.00 0.00 69 1011.2
20260507061510 33 229 0.0 0.0 0.00 0.00 0.00 68 1011.2
20260507060006 34 229 0.0 0.0 0.00 0.00 0.00 67 1011.2
20260507054505 34 229 0.0 0.0 0.00 0.00 0.00 67 1011.3
20260507053005 35 229 0.0 0.0 0.00 0.00 0.00 65 1011.1
20260507051504 36 229 0.0 0.0 0.00 0.00 0.00 64 1011.0
20260507050008 37 229 0.0 0.0 0.00 0.00 0.00 64 1011.2
20260507044504 36 229 0.0 0.0 0.00 0.00 0.00 67 1011.1
20260507043003 34 229 0.0 0.0 0.00 0.00 0.00 65 1011.2
20260507041508 35 229 0.0 0.0 0.00 0.00 0.00 65 1011.3
20260507040002 37 229 0.0 0.0 0.00 0.00 0.00 61 1011.2
20260507034506 39 229 0.0 0.0 0.00 0.00 0.00 60 1011.2
20260507033100 40 229 0.0 0.0 0.00 0.00 0.00 57 1011.2
20260507031604 41 229 0.0 0.0 0.00 0.00 0.00 56 1011.4
20260507024604 42 229 0.0 0.0 0.00 0.00 0.00 51 1011.5
20260507023111 43 229 0.0 0.0 0.00 0.00 0.00 50 1011.4
20260507021557 45 229 0.0 0.0 0.00 0.00 0.00 47 1011.5
20260507020056 48 229 0.0 0.0 0.00 0.00 0.00 41 1011.6
20260507014606 51 229 0.0 0.0 0.00 0.00 0.00 38 1011.7
20260507013111 52 229 0.0 0.0 0.00 0.00 0.00 36 1011.9
20260507011554 52 229 0.0 0.0 0.00 0.00 0.00 36 1012.0
20260507010051 52 229 0.0 0.0 0.00 0.00 0.00 37 1012.1
20260507004550 52 229 0.0 0.0 0.00 0.00 0.00 36 1012.2
20260507003048 53 229 0.0 0.0 0.00 0.00 0.00 34 1012.3
20260507001608 54 229 0.0 0.0 0.00 0.00 0.00 32 1012.3
20260507000048 54 229 0.0 0.0 0.00 0.00 0.00 34 1012.4
20260506234546 54 229 0.0 0.0 0.00 0.00 0.00 32 1012.5
20260506233047 55 229 0.0 0.0 0.00 0.00 0.00 31 1012.7
20260506231547 54 229 0.0 0.0 0.00 0.00 0.00 32 1012.8
20260506230042 55 229 0.0 0.0 0.00 0.00 0.00 31 1013.0
20260506224540 54 229 0.0 0.0 0.00 0.00 0.00 31 1013.2
20260506223049 56 229 0.0 0.0 0.00 0.00 0.00 29 1013.4
20260506221538 56 229 0.0 0.0 0.00 0.00 0.00 30 1013.7
20260506220037 56 229 0.0 0.0 0.00 0.00 0.00 29 1013.9
20260506214535 55 229 0.0 0.0 0.00 0.00 0.00 30 1014.1
20260506213036 55 229 0.0 0.0 0.00 0.00 0.00 30 1014.4
20260506211530 55 229 0.0 0.0 0.00 0.00 0.00 31 1014.5
20260506210031 55 229 0.0 0.0 0.00 0.00 0.00 32 1014.9
20260506204526 55 229 0.0 0.0 0.00 0.00 0.00 31 1015.2
20260506203023 54 229 0.0 0.0 0.00 0.00 0.00 33 1015.4
20260506201523 54 229 0.0 0.0 0.00 0.00 0.00 31 1015.5
20260506200021 54 229 0.0 0.0 0.00 0.00 0.00 30 1015.8
20260506194518 54 229 0.0 0.0 0.00 0.00 0.00 32 1016.0
20260506193014 52 229 0.0 0.0 0.00 0.00 0.00 33 1016.4
20260506191516 53 229 0.0 0.0 0.00 0.00 0.00 32 1016.5
20260506190012 52 229 0.0 0.0 0.00 0.00 0.00 31 1016.6
20260506184509 52 229 0.0 0.0 0.00 0.00 0.00 33 1016.8
20260506183009 52 229 0.0 0.0 0.00 0.00 0.00 33 1017.1
20260506181504 51 229 0.0 0.0 0.00 0.00 0.00 32 1017.3
20260506180005 51 229 0.0 0.0 0.00 0.00 0.00 34 1017.7
20260506174501 51 229 0.0 0.0 0.00 0.00 0.00 34 1017.8
20260506173123 50 229 0.0 0.0 0.00 0.00 0.00 36 1018.0
20260506171602 50 229 0.0 0.0 0.00 0.00 0.00 36 1018.2
20260506170057 49 229 0.0 0.0 0.00 0.00 0.00 35 1018.3
20260506164553 49 229 0.0 0.0 0.00 0.00 0.00 34 1018.4
20260506163052 48 229 0.0 0.0 0.00 0.00 0.00 36 1018.6
20260506161555 48 229 0.0 0.0 0.00 0.00 0.00 36 1018.7
20260506160057 48 229 0.0 0.0 0.00 0.00 0.00 37 1018.8
20260506154545 47 229 0.0 0.0 0.00 0.00 0.00 42 1019.0
20260506153044 45 229 0.0 0.0 0.00 0.00 0.00 42 1019.1
20260506151540 45 229 0.0 0.0 0.00 0.00 0.00 48 1019.2
20260506150036 43 229 0.0 0.0 0.00 0.00 0.00 51 1019.1
20260506144531 41 229 0.0 0.0 0.00 0.00 0.00 55 1019.3
20260506143028 40 229 0.0 0.0 0.00 0.00 0.00 57 1019.4
20260506141524 39 229 0.0 0.0 0.00 0.00 0.00 58 1019.4
20260506140021 38 229 0.0 0.0 0.00 0.00 0.00 61 1019.5
20260506134534 36 229 0.0 0.0 0.00 0.00 0.00 65 1019.4
20260506133013 33 229 0.0 0.0 0.00 0.00 0.00 74 1019.4
20260506131509 30 229 0.0 0.0 0.00 0.00 0.00 76 1019.4
20260506130006 28 229 0.0 0.0 0.00 0.00 0.00 78 1019.3
20260506124511 26 229 0.0 0.0 0.00 0.00 0.00 79 1019.2
20260506123003 25 229 0.0 0.0 0.00 0.00 0.00 80 1019.1
20260506121506 24 229 0.0 0.0 0.00 0.00 0.00 80 1019.0
20260506120103 24 229 0.0 0.0 0.00 0.00 0.00 79 1019.0
20260506114559 24 229 0.0 0.0 0.00 0.00 0.00 80 1018.7